Time,TemperatureF,DewpointF,PressureIn,WindDirection,WindDirectionDegrees,WindSpeedMPH,WindSpeedGustMPH,Humidity,HourlyPrecipIn,Conditions,Clouds,dailyrainin,SolarRadiationWatts/m^2,SoftwareType,DateUTC
2013-02-15 00:00:00,20.9,17.9,29.52,North,350,0.0,0.0,88,0.00,,,0.00,0,WeatherCatV1.11B39,2013-02-15 05:00:00,
2013-02-15 00:05:00,20.9,17.9,29.52,North,350,0.0,0.0,88,0.00,,,0.00,0,WeatherCatV1.11B39,2013-02-15 05:05:00,
2013-02-15 00:10:00,20.9,17.7,29.52,North,350,0.0,0.0,87,0.00,,,0.00,0,WeatherCatV1.11B39,2013-02-15 05:10:00,
2013-02-15 00:15:00,20.8,17.6,29.52,North,350,0.0,0.0,87,0.00,,,0.00,0,WeatherCatV1.11B39,2013-02-15 05:15:00,
2013-02-15 00:20:00,20.8,17.8,29.51,North,350,0.0,0.0,88,0.00,,,0.00,0,WeatherCatV1.11B39,2013-02-15 05:20:00,
2013-02-15 00:25:00,20.8,18.1,29.51,North,350,0.0,0.0,89,0.00,,,0.00,0,WeatherCatV1.11B39,2013-02-15 05:25:00,
2013-02-15 00:30:00,20.7,18.0,29.51,North,350,0.0,0.0,89,0.00,,,0.00,0,WeatherCatV1.11B39,2013-02-15 05:30:00,
2013-02-15 00:35:00,20.8,18.3,29.51,North,350,0.0,0.0,90,0.00,,,0.00,0,WeatherCatV1.11B39,2013-02-15 05:35:00,
2013-02-15 00:40:00,20.8,18.3,29.51,North,350,0.0,0.0,90,0.00,,,0.00,0,WeatherCatV1.11B39,2013-02-15 05:40:00,
2013-02-15 00:45:00,20.8,18.1,29.51,North,350,0.0,0.0,89,0.00,,,0.00,0,WeatherCatV1.11B39,2013-02-15 05:45:00,
2013-02-15 00:50:00,20.8,18.1,29.51,North,350,0.0,0.0,89,0.00,,,0.00,0,WeatherCatV1.11B39,2013-02-15 05:50:00,
2013-02-15 00:55:00,20.8,18.1,29.51,North,350,0.0,0.0,89,0.00,,,0.00,0,WeatherCatV1.11B39,2013-02-15 05:55:00,
2013-02-15 01:00:00,20.9,18.4,29.51,North,351,0.0,0.0,90,0.00,,,0.00,0,WeatherCatV1.11B39,2013-02-15 06:00:00,
2013-02-15 01:05:00,20.9,18.4,29.50,North,350,0.0,0.0,90,0.00,,,0.00,0,WeatherCatV1.11B39,2013-02-15 06:05:00,
2013-02-15 01:10:00,21.0,18.5,29.50,North,351,0.0,0.0,90,0.00,,,0.00,0,WeatherCatV1.11B39,2013-02-15 06:10:00,
2013-02-15 01:15:00,21.1,18.9,29.50,North,350,0.0,0.0,91,0.00,,,0.00,0,WeatherCatV1.11B39,2013-02-15 06:15:00,
2013-02-15 01:20:00,21.3,18.8,29.50,North,350,0.0,0.0,90,0.00,,,0.00,0,WeatherCatV1.11B39,2013-02-15 06:20:00,
2013-02-15 01:25:00,21.3,18.8,29.51,North,350,0.0,0.0,90,0.00,,,0.00,0,WeatherCatV1.11B39,2013-02-15 06:25:00,
2013-02-15 01:30:00,21.5,19.0,29.50,North,350,0.0,0.0,90,0.00,,,0.00,0,WeatherCatV1.11B39,2013-02-15 06:30:00,
2013-02-15 01:35:00,21.6,19.1,29.50,North,350,0.0,0.0,90,0.00,,,0.00,0,WeatherCatV1.11B39,2013-02-15 06:35:00,
2013-02-15 01:40:00,21.6,19.1,29.50,North,350,0.0,0.0,90,0.00,,,0.00,0,WeatherCatV1.11B39,2013-02-15 06:40:00,
2013-02-15 01:45:00,21.7,19.0,29.50,North,351,0.0,0.0,89,0.00,,,0.00,0,WeatherCatV1.11B39,2013-02-15 06:45:00,
2013-02-15 01:50:00,21.7,19.0,29.50,North,350,0.0,0.0,89,0.00,,,0.00,0,WeatherCatV1.11B39,2013-02-15 06:50:00,
2013-02-15 01:55:00,21.7,19.0,29.50,North,350,0.0,0.0,89,0.00,,,0.00,0,WeatherCatV1.11B39,2013-02-15 06:55:00,
2013-02-15 02:00:00,21.7,19.0,29.50,North,350,0.0,0.0,89,0.00,,,0.00,0,WeatherCatV1.11B39,2013-02-15 07:00:00,
2013-02-15 02:05:00,21.7,19.0,29.50,North,350,0.0,0.0,89,0.00,,,0.00,0,WeatherCatV1.11B39,2013-02-15 07:05:00,
2013-02-15 02:10:00,21.7,19.0,29.50,North,350,0.0,0.0,89,0.00,,,0.00,0,WeatherCatV1.11B39,2013-02-15 07:10:00,
2013-02-15 02:15:00,21.7,19.0,29.50,North,350,0.0,0.0,89,0.00,,,0.00,0,WeatherCatV1.11B39,2013-02-15 07:15:00,
2013-02-15 02:20:00,21.7,19.0,29.50,North,351,0.0,0.0,89,0.00,,,0.00,0,WeatherCatV1.11B39,2013-02-15 07:20:00,
2013-02-15 02:25:00,21.7,19.0,29.50,North,350,0.0,0.0,89,0.00,,,0.00,0,WeatherCatV1.11B39,2013-02-15 07:25:00,
2013-02-15 02:30:00,21.6,18.9,29.50,North,351,0.0,0.0,89,0.00,,,0.00,0,WeatherCatV1.11B39,2013-02-15 07:30:00,
2013-02-15 02:35:00,21.6,18.6,29.49,North,350,0.0,0.0,88,0.00,,,0.00,0,WeatherCatV1.11B39,2013-02-15 07:35:00,
2013-02-15 02:40:00,21.5,18.5,29.49,North,350,0.0,0.0,88,0.00,,,0.00,0,WeatherCatV1.11B39,2013-02-15 07:40:00,
2013-02-15 02:45:00,21.3,18.0,29.49,North,351,0.0,0.0,87,0.00,,,0.00,0,WeatherCatV1.11B39,2013-02-15 07:45:00,
2013-02-15 02:50:00,21.2,17.9,29.49,North,351,0.0,0.0,87,0.00,,,0.00,0,WeatherCatV1.11B39,2013-02-15 07:50:00,
2013-02-15 02:55:00,21.1,17.8,29.49,North,350,0.0,0.0,87,0.00,,,0.00,0,WeatherCatV1.11B39,2013-02-15 07:55:00,
2013-02-15 03:00:00,21.0,18.0,29.49,North,350,0.0,0.0,88,0.00,,,0.00,0,WeatherCatV1.11B39,2013-02-15 08:00:00,
2013-02-15 03:05:00,20.9,18.2,29.49,North,350,0.0,0.0,89,0.00,,,0.00,0,WeatherCatV1.11B39,2013-02-15 08:05:00,
2013-02-15 03:10:00,20.8,18.1,29.49,North,350,0.0,0.0,89,0.00,,,0.00,0,WeatherCatV1.11B39,2013-02-15 08:10:00,
2013-02-15 03:15:00,20.7,17.7,29.49,North,351,0.0,0.0,88,0.00,,,0.00,0,WeatherCatV1.11B39,2013-02-15 08:15:00,
2013-02-15 03:20:00,20.5,17.0,29.49,North,350,0.0,0.0,86,0.00,,,0.00,0,WeatherCatV1.11B39,2013-02-15 08:20:00,
2013-02-15 03:25:00,20.3,16.8,29.49,North,350,0.0,0.0,86,0.00,,,0.00,0,WeatherCatV1.11B39,2013-02-15 08:25:00,
2013-02-15 03:30:00,20.2,16.7,29.49,North,350,0.0,0.0,86,0.00,,,0.00,0,WeatherCatV1.11B39,2013-02-15 08:30:00,
2013-02-15 03:35:00,20.1,16.9,29.49,North,350,0.0,0.0,87,0.00,,,0.00,0,WeatherCatV1.11B39,2013-02-15 08:35:00,
2013-02-15 03:40:00,20.0,17.0,29.49,North,350,0.0,0.0,88,0.00,,,0.00,0,WeatherCatV1.11B39,2013-02-15 08:40:00,
2013-02-15 03:45:00,19.9,16.9,29.49,North,350,0.0,0.0,88,0.00,,,0.00,0,WeatherCatV1.11B39,2013-02-15 08:45:00,
2013-02-15 03:50:00,19.9,16.9,29.49,North,350,0.0,0.0,88,0.00,,,0.00,0,WeatherCatV1.11B39,2013-02-15 08:50:00,
2013-02-15 03:55:00,19.8,17.1,29.49,North,350,0.0,0.0,89,0.00,,,0.00,0,WeatherCatV1.11B39,2013-02-15 08:55:00,
2013-02-15 04:00:00,19.7,17.0,29.49,North,350,0.0,0.0,89,0.00,,,0.00,0,WeatherCatV1.11B39,2013-02-15 09:00:00,
2013-02-15 04:05:00,19.7,17.0,29.49,North,350,0.0,0.0,89,0.00,,,0.00,0,WeatherCatV1.11B39,2013-02-15 09:05:00,
2013-02-15 04:10:00,19.7,17.3,29.49,North,350,0.0,0.0,90,0.00,,,0.00,0,WeatherCatV1.11B39,2013-02-15 09:10:00,
2013-02-15 04:15:00,19.7,17.3,29.49,North,350,0.0,0.0,90,0.00,,,0.00,0,WeatherCatV1.11B39,2013-02-15 09:15:00,
2013-02-15 04:20:00,19.7,17.3,29.49,North,350,0.0,0.0,90,0.00,,,0.00,0,WeatherCatV1.11B39,2013-02-15 09:20:00,
2013-02-15 04:25:00,19.7,17.3,29.49,North,351,0.0,0.0,90,0.00,,,0.00,0,WeatherCatV1.11B39,2013-02-15 09:25:00,
2013-02-15 04:30:00,19.7,17.3,29.49,North,350,0.0,0.0,90,0.00,,,0.00,0,WeatherCatV1.11B39,2013-02-15 09:30:00,
2013-02-15 04:35:00,19.7,17.3,29.49,North,350,0.0,0.0,90,0.00,,,0.00,0,WeatherCatV1.11B39,2013-02-15 09:35:00,
2013-02-15 04:40:00,19.7,17.3,29.49,North,350,0.0,0.0,90,0.00,,,0.00,0,WeatherCatV1.11B39,2013-02-15 09:40:00,
2013-02-15 04:45:00,19.7,17.3,29.49,North,350,0.0,0.0,90,0.00,,,0.00,0,WeatherCatV1.11B39,2013-02-15 09:45:00,
2013-02-15 04:50:00,19.7,17.0,29.49,North,350,0.0,0.0,89,0.00,,,0.00,0,WeatherCatV1.11B39,2013-02-15 09:50:00,
2013-02-15 04:55:00,19.5,16.8,29.49,North,350,0.0,0.0,89,0.00,,,0.00,0,WeatherCatV1.11B39,2013-02-15 09:55:00,
2013-02-15 05:00:00,19.4,16.4,29.49,North,350,0.0,0.0,88,0.00,,,0.00,0,WeatherCatV1.11B39,2013-02-15 10:00:00,
2013-02-15 05:05:00,19.3,16.3,29.49,North,350,0.0,0.0,88,0.00,,,0.00,0,WeatherCatV1.11B39,2013-02-15 10:05:00,
2013-02-15 05:10:00,19.3,16.6,29.48,North,351,0.0,0.0,89,0.00,,,0.00,0,WeatherCatV1.11B39,2013-02-15 10:10:00,
2013-02-15 05:15:00,19.2,16.5,29.48,North,350,0.0,0.0,89,0.00,,,0.00,0,WeatherCatV1.11B39,2013-02-15 10:15:00,
2013-02-15 05:20:00,19.1,16.4,29.48,North,350,0.0,0.0,89,0.00,,,0.00,0,WeatherCatV1.11B39,2013-02-15 10:20:00,
2013-02-15 05:25:00,19.0,16.3,29.48,North,351,0.0,0.0,89,0.00,,,0.00,0,WeatherCatV1.11B39,2013-02-15 10:25:00,
2013-02-15 05:30:00,19.0,16.6,29.49,North,350,0.0,0.0,90,0.00,,,0.00,0,WeatherCatV1.11B39,2013-02-15 10:30:00,
2013-02-15 05:35:00,19.0,16.6,29.49,North,350,0.0,0.0,90,0.00,,,0.00,0,WeatherCatV1.11B39,2013-02-15 10:35:00,
2013-02-15 05:40:00,19.1,16.9,29.49,North,350,0.0,0.0,91,0.00,,,0.00,0,WeatherCatV1.11B39,2013-02-15 10:40:00,
2013-02-15 05:45:00,19.2,17.3,29.49,North,351,0.0,0.0,92,0.00,,,0.00,0,WeatherCatV1.11B39,2013-02-15 10:45:00,
2013-02-15 05:50:00,19.3,17.4,29.49,North,350,0.0,0.0,92,0.00,,,0.00,0,WeatherCatV1.11B39,2013-02-15 10:50:00,
2013-02-15 05:55:00,19.3,17.4,29.49,North,350,0.0,0.0,92,0.00,,,0.00,0,WeatherCatV1.11B39,2013-02-15 10:55:00,
2013-02-15 06:00:00,19.4,17.5,29.49,North,350,0.0,0.0,92,0.00,,,0.00,0,WeatherCatV1.11B39,2013-02-15 11:00:00,
2013-02-15 06:05:00,19.5,17.6,29.48,North,350,0.0,1.0,92,0.00,,,0.00,0,WeatherCatV1.11B39,2013-02-15 11:05:00,
2013-02-15 06:10:00,19.6,17.7,29.48,North,350,0.0,0.0,92,0.00,,,0.00,0,WeatherCatV1.11B39,2013-02-15 11:10:00,
2013-02-15 06:15:00,19.7,17.8,29.48,North,350,0.0,0.0,92,0.00,,,0.00,0,WeatherCatV1.11B39,2013-02-15 11:15:00,
2013-02-15 06:20:00,19.7,17.8,29.48,North,351,0.0,0.0,92,0.00,,,0.00,0,WeatherCatV1.11B39,2013-02-15 11:20:00,
2013-02-15 06:25:00,19.7,17.8,29.48,North,350,0.0,0.0,92,0.00,,,0.00,0,WeatherCatV1.11B39,2013-02-15 11:25:00,
2013-02-15 06:30:00,19.7,17.8,29.48,North,350,0.0,0.0,92,0.00,,,0.00,0,WeatherCatV1.11B39,2013-02-15 11:30:00,
2013-02-15 06:35:00,19.9,18.2,29.48,North,350,0.0,0.0,93,0.00,,,0.00,0,WeatherCatV1.11B39,2013-02-15 11:35:00,
2013-02-15 06:40:00,20.0,18.3,29.48,North,351,0.0,0.0,93,0.00,,,0.00,0,WeatherCatV1.11B39,2013-02-15 11:40:00,
2013-02-15 06:45:00,20.2,18.5,29.48,North,351,0.0,0.0,93,0.00,,,0.00,0,WeatherCatV1.11B39,2013-02-15 11:45:00,
2013-02-15 06:50:00,20.5,18.8,29.48,North,350,0.0,0.0,93,0.00,,,0.00,0,WeatherCatV1.11B39,2013-02-15 11:50:00,
2013-02-15 06:55:00,20.7,19.0,29.48,North,351,0.0,0.0,93,0.00,,,0.00,0,WeatherCatV1.11B39,2013-02-15 11:55:00,
2013-02-15 07:00:00,20.9,19.2,29.48,North,351,0.0,0.0,93,0.00,,,0.00,0,WeatherCatV1.11B39,2013-02-15 12:00:00,
2013-02-15 07:05:00,21.1,19.4,29.48,North,350,0.0,0.0,93,0.00,,,0.00,5,WeatherCatV1.11B39,2013-02-15 12:05:00,
2013-02-15 07:10:00,21.3,19.6,29.48,North,350,0.0,0.0,93,0.00,,,0.00,7,WeatherCatV1.11B39,2013-02-15 12:10:00,
2013-02-15 07:15:00,21.5,19.8,29.48,North,350,0.0,0.0,93,0.00,,,0.00,7,WeatherCatV1.11B39,2013-02-15 12:15:00,
2013-02-15 07:20:00,21.6,19.6,29.48,North,351,0.0,0.0,92,0.00,,,0.00,9,WeatherCatV1.11B39,2013-02-15 12:20:00,
2013-02-15 07:25:00,21.8,19.8,29.48,North,350,0.0,0.0,92,0.00,,,0.00,9,WeatherCatV1.11B39,2013-02-15 12:25:00,
2013-02-15 07:30:00,22.0,20.0,29.48,North,350,0.0,0.0,92,0.00,,,0.00,16,WeatherCatV1.11B39,2013-02-15 12:30:00,
2013-02-15 07:35:00,22.2,20.2,29.48,North,350,0.0,0.0,92,0.00,,,0.00,18,WeatherCatV1.11B39,2013-02-15 12:35:00,
2013-02-15 07:40:00,22.3,20.3,29.48,North,351,0.0,0.0,92,0.00,,,0.00,23,WeatherCatV1.11B39,2013-02-15 12:40:00,
2013-02-15 07:45:00,22.4,20.2,29.48,North,350,0.0,0.0,91,0.00,,,0.00,33,WeatherCatV1.11B39,2013-02-15 12:45:00,
2013-02-15 07:50:00,22.5,20.3,29.48,North,350,0.0,0.0,91,0.00,,,0.00,39,WeatherCatV1.11B39,2013-02-15 12:50:00,
2013-02-15 07:55:00,22.6,20.1,29.48,North,350,0.0,0.0,90,0.00,,,0.00,39,WeatherCatV1.11B39,2013-02-15 12:55:00,
2013-02-15 08:00:00,22.8,20.3,29.48,North,350,0.0,0.0,90,0.00,,,0.00,28,WeatherCatV1.11B39,2013-02-15 13:00:00,
2013-02-15 08:05:00,22.9,20.4,29.48,North,350,0.0,0.0,90,0.00,,,0.00,23,WeatherCatV1.11B39,2013-02-15 13:05:00,
2013-02-15 08:10:00,23.0,20.5,29.48,North,350,0.0,0.0,90,0.00,,,0.00,40,WeatherCatV1.11B39,2013-02-15 13:10:00,
2013-02-15 08:15:00,23.2,20.4,29.49,North,350,0.0,0.0,89,0.00,,,0.00,40,WeatherCatV1.11B39,2013-02-15 13:15:00,
2013-02-15 08:20:00,23.3,20.5,29.48,North,350,0.0,0.0,89,0.00,,,0.00,44,WeatherCatV1.11B39,2013-02-15 13:20:00,
2013-02-15 08:25:00,23.5,20.5,29.48,North,350,0.0,0.0,88,0.00,,,0.00,33,WeatherCatV1.11B39,2013-02-15 13:25:00,
2013-02-15 08:30:00,23.7,20.7,29.49,North,350,0.0,0.0,88,0.00,,,0.00,49,WeatherCatV1.11B39,2013-02-15 13:30:00,
2013-02-15 08:44:00,24.2,20.6,29.48,North,350,0.0,0.0,86,0.00,,,0.00,54,WeatherCatV1.11B39,2013-02-15 13:44:00,
2013-02-15 08:49:00,24.2,20.4,29.48,North,350,0.0,0.0,85,0.00,,,0.00,69,WeatherCatV1.11B39,2013-02-15 13:49:00,
2013-02-15 08:54:00,24.2,20.4,29.48,North,350,0.0,0.0,85,0.00,,,0.00,40,WeatherCatV1.11B39,2013-02-15 13:54:00,
2013-02-15 08:59:00,24.2,20.4,29.48,North,350,0.0,0.0,85,0.00,,,0.00,35,WeatherCatV1.11B39,2013-02-15 13:59:00,
2013-02-15 09:04:00,24.2,20.4,29.48,North,351,0.0,0.0,85,0.00,,,0.00,114,WeatherCatV1.11B39,2013-02-15 14:04:00,
2013-02-15 09:09:00,24.4,20.8,29.48,North,350,0.0,0.0,86,0.00,,,0.00,93,WeatherCatV1.11B39,2013-02-15 14:09:00,
2013-02-15 09:14:00,24.5,20.9,29.48,North,350,0.0,0.0,86,0.00,,,0.00,206,WeatherCatV1.11B39,2013-02-15 14:14:00,
2013-02-15 09:19:00,24.7,21.1,29.48,North,350,0.0,0.0,86,0.00,,,0.00,104,WeatherCatV1.11B39,2013-02-15 14:19:00,
2013-02-15 09:24:00,24.9,21.0,29.48,North,350,0.0,0.0,85,0.00,,,0.00,77,WeatherCatV1.11B39,2013-02-15 14:24:00,
2013-02-15 09:29:00,25.2,21.3,29.48,North,350,0.0,0.0,85,0.00,,,0.00,62,WeatherCatV1.11B39,2013-02-15 14:29:00,
2013-02-15 09:34:00,25.6,21.7,29.48,North,350,0.0,0.0,85,0.00,,,0.00,62,WeatherCatV1.11B39,2013-02-15 14:34:00,
2013-02-15 09:39:00,26.1,21.7,29.47,North,350,0.0,0.0,83,0.00,,,0.00,69,WeatherCatV1.11B39,2013-02-15 14:39:00,
2013-02-15 09:44:00,26.5,22.0,29.47,North,350,0.0,0.0,83,0.00,,,0.00,56,WeatherCatV1.11B39,2013-02-15 14:44:00,
2013-02-15 09:49:00,26.9,22.4,29.47,North,350,0.0,0.0,83,0.00,,,0.00,58,WeatherCatV1.11B39,2013-02-15 14:49:00,
2013-02-15 09:54:00,27.1,22.1,29.47,North,350,0.0,0.0,81,0.00,,,0.00,33,WeatherCatV1.11B39,2013-02-15 14:54:00,
2013-02-15 09:59:00,27.4,22.1,29.47,North,350,0.0,0.0,80,0.00,,,0.00,60,WeatherCatV1.11B39,2013-02-15 14:59:00,
2013-02-15 10:04:00,27.6,22.3,29.47,North,350,0.0,0.0,80,0.00,,,0.00,70,WeatherCatV1.11B39,2013-02-15 15:04:00,
2013-02-15 10:07:00,27.8,22.2,29.47,North,350,0.0,1.0,79,0.00,,,0.00,51,WeatherCatV1.11B39,2013-02-15 15:07:00,
2013-02-15 10:12:00,28.0,22.0,29.47,North,350,0.0,1.0,78,0.00,,,0.00,53,WeatherCatV1.11B39,2013-02-15 15:12:00,
2013-02-15 10:17:00,28.3,22.6,29.47,North,350,0.0,0.0,79,0.00,,,0.00,76,WeatherCatV1.11B39,2013-02-15 15:17:00,
2013-02-15 10:22:00,28.6,22.6,29.46,North,350,0.0,1.0,78,0.00,,,0.00,54,WeatherCatV1.11B39,2013-02-15 15:22:00,
2013-02-15 10:27:00,28.9,22.9,29.46,North,350,0.0,1.0,78,0.00,,,0.00,63,WeatherCatV1.11B39,2013-02-15 15:27:00,
2013-02-15 10:32:00,29.3,23.3,29.46,North,350,0.0,1.0,78,0.00,,,0.00,54,WeatherCatV1.11B39,2013-02-15 15:32:00,
2013-02-15 10:37:00,29.6,23.3,29.46,North,350,0.0,0.0,77,0.00,,,0.00,54,WeatherCatV1.11B39,2013-02-15 15:37:00,
2013-02-15 10:42:00,29.9,23.6,29.46,North,350,0.0,0.0,77,0.00,,,0.00,56,WeatherCatV1.11B39,2013-02-15 15:42:00,
2013-02-15 10:47:00,30.2,23.9,29.46,North,350,0.0,0.0,77,0.00,,,0.00,97,WeatherCatV1.11B39,2013-02-15 15:47:00,
2013-02-15 10:52:00,30.6,24.3,29.46,North,350,0.0,0.0,77,0.00,,,0.00,79,WeatherCatV1.11B39,2013-02-15 15:52:00,
2013-02-15 10:57:00,31.0,25.0,29.46,North,350,0.0,0.0,78,0.00,,,0.00,62,WeatherCatV1.11B39,2013-02-15 15:57:00,
2013-02-15 11:02:00,31.4,25.0,29.45,North,350,0.0,0.0,77,0.00,,,0.00,65,WeatherCatV1.11B39,2013-02-15 16:02:00,
2013-02-15 11:07:00,31.7,25.0,29.45,North,350,0.0,0.0,76,0.00,,,0.00,98,WeatherCatV1.11B39,2013-02-15 16:07:00,
2013-02-15 11:12:00,32.2,25.8,29.45,North,350,0.0,0.0,77,0.00,,,0.00,76,WeatherCatV1.11B39,2013-02-15 16:12:00,
2013-02-15 11:17:00,32.9,26.2,29.45,North,350,0.0,1.0,76,0.00,,,0.00,70,WeatherCatV1.11B39,2013-02-15 16:17:00,
2013-02-15 11:22:00,33.7,27.0,29.44,North,350,0.0,1.0,76,0.00,,,0.00,63,WeatherCatV1.11B39,2013-02-15 16:22:00,
2013-02-15 11:27:00,34.4,26.7,29.44,South,180,0.0,1.0,73,0.00,,,0.00,95,WeatherCatV1.11B39,2013-02-15 16:27:00,
2013-02-15 11:32:00,35.2,27.1,29.44,SSE,147,0.0,0.0,72,0.00,,,0.00,116,WeatherCatV1.11B39,2013-02-15 16:32:00,
2013-02-15 11:37:00,35.8,27.7,29.43,SSE,163,1.0,2.0,72,0.00,,,0.00,207,WeatherCatV1.11B39,2013-02-15 16:37:00,
2013-02-15 11:42:00,36.5,27.7,29.43,South,183,0.0,3.0,70,0.00,,,0.00,403,WeatherCatV1.11B39,2013-02-15 16:42:00,
2013-02-15 11:47:00,37.4,28.9,29.43,South,183,0.0,1.0,71,0.00,,,0.00,279,WeatherCatV1.11B39,2013-02-15 16:47:00,
2013-02-15 11:52:00,38.2,29.6,29.42,South,183,0.0,0.0,71,0.00,,,0.00,279,WeatherCatV1.11B39,2013-02-15 16:52:00,
2013-02-15 11:57:00,38.8,29.5,29.42,South,173,0.0,1.0,69,0.00,,,0.00,378,WeatherCatV1.11B39,2013-02-15 16:57:00,
2013-02-15 12:02:00,39.6,29.9,29.42,South,173,0.0,0.0,68,0.00,,,0.00,424,WeatherCatV1.11B39,2013-02-15 17:02:00,
2013-02-15 12:07:00,40.4,30.3,29.42,South,171,0.0,2.0,67,0.00,,,0.00,313,WeatherCatV1.11B39,2013-02-15 17:07:00,
2013-02-15 12:12:00,41.1,29.1,29.41,South,171,0.0,2.0,62,0.00,,,0.00,417,WeatherCatV1.11B39,2013-02-15 17:12:00,
2013-02-15 12:17:00,41.7,29.7,29.41,SSE,156,0.0,2.0,62,0.00,,,0.00,401,WeatherCatV1.11B39,2013-02-15 17:17:00,
2013-02-15 12:22:00,42.1,30.4,29.41,South,175,0.0,1.0,63,0.00,,,0.00,376,WeatherCatV1.11B39,2013-02-15 17:22:00,
2013-02-15 12:27:00,42.5,30.0,29.41,South,181,0.0,3.0,61,0.00,,,0.00,302,WeatherCatV1.11B39,2013-02-15 17:27:00,
2013-02-15 12:32:00,42.8,29.5,29.41,South,179,0.0,2.0,59,0.00,,,0.00,267,WeatherCatV1.11B39,2013-02-15 17:32:00,
2013-02-15 12:37:00,43.0,30.1,29.41,South,169,0.0,2.0,60,0.00,,,0.00,185,WeatherCatV1.11B39,2013-02-15 17:37:00,
2013-02-15 12:42:00,43.3,29.9,29.40,South,169,0.0,1.0,59,0.00,,,0.00,188,WeatherCatV1.11B39,2013-02-15 17:42:00,
2013-02-15 12:47:00,43.5,29.7,29.40,SSE,161,0.0,1.0,58,0.00,,,0.00,336,WeatherCatV1.11B39,2013-02-15 17:47:00,
2013-02-15 12:52:00,43.5,30.1,29.40,South,173,0.0,2.0,59,0.00,,,0.00,499,WeatherCatV1.11B39,2013-02-15 17:52:00,
2013-02-15 12:57:00,43.6,30.2,29.40,SSE,167,0.0,1.0,59,0.00,,,0.00,220,WeatherCatV1.11B39,2013-02-15 17:57:00,
2013-02-15 13:02:00,43.8,30.0,29.40,SSE,167,1.0,2.0,58,0.00,,,0.00,292,WeatherCatV1.11B39,2013-02-15 18:02:00,
2013-02-15 13:07:00,43.8,30.4,29.39,SSE,155,0.0,1.0,59,0.00,,,0.00,311,WeatherCatV1.11B39,2013-02-15 18:07:00,
2013-02-15 13:12:00,43.8,30.0,29.39,South,178,0.0,3.0,58,0.00,,,0.00,236,WeatherCatV1.11B39,2013-02-15 18:12:00,
2013-02-15 13:17:00,43.8,30.0,29.39,SE,144,0.0,2.0,58,0.00,,,0.00,67,WeatherCatV1.11B39,2013-02-15 18:17:00,
2013-02-15 13:22:00,43.7,30.7,29.39,South,180,0.0,1.0,60,0.00,,,0.00,58,WeatherCatV1.11B39,2013-02-15 18:22:00,
2013-02-15 13:27:00,43.6,30.2,29.39,South,182,0.0,2.0,59,0.00,,,0.00,58,WeatherCatV1.11B39,2013-02-15 18:27:00,
2013-02-15 13:32:00,43.4,30.0,29.38,SSE,161,1.0,1.0,59,0.00,,,0.00,54,WeatherCatV1.11B39,2013-02-15 18:32:00,
2013-02-15 13:37:00,43.3,29.9,29.38,South,175,0.0,3.0,59,0.00,,,0.00,53,WeatherCatV1.11B39,2013-02-15 18:37:00,
2013-02-15 13:42:00,43.1,31.0,29.38,South,175,0.0,1.0,62,0.00,,,0.00,54,WeatherCatV1.11B39,2013-02-15 18:42:00,
2013-02-15 13:47:00,43.0,29.2,29.38,SSE,163,0.0,1.0,58,0.00,,,0.00,51,WeatherCatV1.11B39,2013-02-15 18:47:00,
2013-02-15 13:52:00,43.0,29.2,29.39,SSE,163,0.0,1.0,58,0.00,,,0.00,54,WeatherCatV1.11B39,2013-02-15 18:52:00,
2013-02-15 13:57:00,43.1,28.5,29.39,South,179,0.0,2.0,56,0.00,,,0.00,54,WeatherCatV1.11B39,2013-02-15 18:57:00,
2013-02-15 14:02:00,43.2,28.6,29.38,SSE,161,0.0,2.0,56,0.00,,,0.00,63,WeatherCatV1.11B39,2013-02-15 19:02:00,
2013-02-15 14:07:00,43.4,29.2,29.39,SSE,167,0.0,2.0,57,0.00,,,0.00,49,WeatherCatV1.11B39,2013-02-15 19:07:00,
2013-02-15 14:12:00,43.6,29.8,29.39,SSE,163,0.0,1.0,58,0.00,,,0.00,69,WeatherCatV1.11B39,2013-02-15 19:12:00,
2013-02-15 14:17:00,43.7,28.6,29.39,SW,223,0.0,2.0,55,0.00,,,0.00,53,WeatherCatV1.11B39,2013-02-15 19:17:00,
2013-02-15 14:22:00,43.8,29.6,29.39,SSE,165,0.0,2.0,57,0.00,,,0.00,46,WeatherCatV1.11B39,2013-02-15 19:22:00,
2013-02-15 14:27:00,44.0,29.3,29.39,SSE,151,0.0,0.0,56,0.00,,,0.00,46,WeatherCatV1.11B39,2013-02-15 19:27:00,
2013-02-15 14:32:00,44.1,29.0,29.39,SW,224,0.0,1.0,55,0.00,,,0.00,46,WeatherCatV1.11B39,2013-02-15 19:32:00,
2013-02-15 14:37:00,44.1,29.0,29.39,South,169,0.0,3.0,55,0.00,,,0.00,70,WeatherCatV1.11B39,2013-02-15 19:37:00,
2013-02-15 14:42:00,44.2,29.1,29.39,South,169,0.0,1.0,55,0.00,,,0.00,58,WeatherCatV1.11B39,2013-02-15 19:42:00,
2013-02-15 14:47:00,44.2,29.1,29.39,South,169,0.0,0.0,55,0.00,,,0.00,53,WeatherCatV1.11B39,2013-02-15 19:47:00,
2013-02-15 14:52:00,44.2,28.6,29.39,SE,144,0.0,3.0,54,0.00,,,0.00,58,WeatherCatV1.11B39,2013-02-15 19:52:00,
2013-02-15 14:57:00,44.2,29.9,29.39,SSE,155,0.0,1.0,57,0.00,,,0.00,79,WeatherCatV1.11B39,2013-02-15 19:57:00,
2013-02-15 15:02:00,44.1,30.7,29.39,South,169,0.0,1.0,59,0.00,,,0.00,76,WeatherCatV1.11B39,2013-02-15 20:02:00,
2013-02-15 15:07:00,44.0,29.8,29.40,South,169,0.0,0.0,57,0.00,,,0.00,299,WeatherCatV1.11B39,2013-02-15 20:07:00,
2013-02-15 15:12:00,44.0,28.9,29.39,SE,140,1.0,3.0,55,0.00,,,0.00,72,WeatherCatV1.11B39,2013-02-15 20:12:00,
2013-02-15 15:17:00,43.9,30.1,29.39,South,178,0.0,3.0,58,0.00,,,0.00,69,WeatherCatV1.11B39,2013-02-15 20:17:00,
2013-02-15 15:22:00,43.8,28.7,29.39,SE,140,0.0,2.0,55,0.00,,,0.00,62,WeatherCatV1.11B39,2013-02-15 20:22:00,
2013-02-15 15:27:00,43.8,28.7,29.40,SE,142,0.0,0.0,55,0.00,,,0.00,67,WeatherCatV1.11B39,2013-02-15 20:27:00,
2013-02-15 15:32:00,43.7,29.0,29.39,WSW,240,0.0,3.0,56,0.00,,,0.00,178,WeatherCatV1.11B39,2013-02-15 20:32:00,
2013-02-15 15:37:00,43.7,30.3,29.40,WSW,240,0.0,0.0,59,0.00,,,0.00,111,WeatherCatV1.11B39,2013-02-15 20:37:00,
2013-02-15 15:42:00,43.7,29.5,29.40,WSW,240,0.0,0.0,57,0.00,,,0.00,49,WeatherCatV1.11B39,2013-02-15 20:42:00,
2013-02-15 15:47:00,43.6,29.8,29.40,WSW,240,0.0,0.0,58,0.00,,,0.00,47,WeatherCatV1.11B39,2013-02-15 20:47:00,
2013-02-15 15:52:00,43.5,29.7,29.39,WSW,240,0.0,1.0,58,0.00,,,0.00,33,WeatherCatV1.11B39,2013-02-15 20:52:00,
2013-02-15 15:57:00,43.3,29.9,29.40,WSW,240,0.0,0.0,59,0.00,,,0.00,44,WeatherCatV1.11B39,2013-02-15 20:57:00,
2013-02-15 16:02:00,43.2,29.0,29.39,WSW,238,0.0,1.0,57,0.00,,,0.00,23,WeatherCatV1.11B39,2013-02-15 21:02:00,
2013-02-15 16:07:00,42.9,29.6,29.39,WSW,238,0.0,0.0,59,0.00,,,0.00,33,WeatherCatV1.11B39,2013-02-15 21:07:00,
2013-02-15 16:12:00,42.7,29.4,29.40,WSW,238,0.0,0.0,59,0.00,,,0.00,25,WeatherCatV1.11B39,2013-02-15 21:12:00,
2013-02-15 16:17:00,42.4,29.5,29.40,WSW,238,0.0,0.0,60,0.00,,,0.00,21,WeatherCatV1.11B39,2013-02-15 21:17:00,
2013-02-15 16:22:00,42.1,29.2,29.40,WSW,238,0.0,0.0,60,0.00,,,0.00,18,WeatherCatV1.11B39,2013-02-15 21:22:00,
2013-02-15 16:27:00,41.8,28.9,29.40,WSW,238,0.0,0.0,60,0.00,,,0.00,12,WeatherCatV1.11B39,2013-02-15 21:27:00,
2013-02-15 16:32:00,41.5,28.7,29.40,WSW,238,0.0,0.0,60,0.00,,,0.00,11,WeatherCatV1.11B39,2013-02-15 21:32:00,
2013-02-15 16:37:00,41.0,29.4,29.40,WSW,238,0.0,0.0,63,0.00,,,0.00,11,WeatherCatV1.11B39,2013-02-15 21:37:00,
2013-02-15 16:42:00,40.6,29.0,29.40,WSW,238,0.0,0.0,63,0.00,,,0.00,9,WeatherCatV1.11B39,2013-02-15 21:42:00,
2013-02-15 16:47:00,40.2,28.6,29.40,WSW,238,0.0,0.0,63,0.00,,,0.00,7,WeatherCatV1.11B39,2013-02-15 21:47:00,
2013-02-15 16:52:00,39.7,28.9,29.41,WSW,238,0.0,0.0,65,0.00,,,0.00,5,WeatherCatV1.11B39,2013-02-15 21:52:00,
2013-02-15 16:57:00,39.3,28.9,29.41,WSW,238,0.0,0.0,66,0.00,,,0.00,5,WeatherCatV1.11B39,2013-02-15 21:57:00,
2013-02-15 17:02:00,38.8,28.8,29.41,WSW,238,0.0,0.0,67,0.00,,,0.00,0,WeatherCatV1.11B39,2013-02-15 22:02:00,
2013-02-15 17:07:00,38.3,28.0,29.41,WSW,238,0.0,0.0,66,0.00,,,0.00,0,WeatherCatV1.11B39,2013-02-15 22:07:00,
2013-02-15 17:12:00,37.8,27.8,29.41,WSW,238,0.0,0.0,67,0.00,,,0.00,0,WeatherCatV1.11B39,2013-02-15 22:12:00,
2013-02-15 17:17:00,37.4,27.5,29.41,WSW,238,0.0,0.0,67,0.00,,,0.00,0,WeatherCatV1.11B39,2013-02-15 22:17:00,
2013-02-15 17:22:00,37.0,28.1,29.41,WSW,238,0.0,0.0,70,0.00,,,0.00,0,WeatherCatV1.11B39,2013-02-15 22:22:00,
2013-02-15 17:27:00,36.5,27.7,29.42,WSW,238,0.0,0.0,70,0.00,,,0.00,0,WeatherCatV1.11B39,2013-02-15 22:27:00,
2013-02-15 17:32:00,36.1,27.6,29.42,WSW,238,0.0,0.0,71,0.00,,,0.00,0,WeatherCatV1.11B39,2013-02-15 22:32:00,
2013-02-15 17:37:00,35.7,27.2,29.42,WSW,238,0.0,0.0,71,0.00,,,0.00,0,WeatherCatV1.11B39,2013-02-15 22:37:00,
2013-02-15 17:42:00,35.4,27.3,29.42,WSW,238,0.0,1.0,72,0.00,,,0.00,0,WeatherCatV1.11B39,2013-02-15 22:42:00,
2013-02-15 17:47:00,34.9,26.8,29.42,WSW,238,0.0,0.0,72,0.00,,,0.00,0,WeatherCatV1.11B39,2013-02-15 22:47:00,
2013-02-15 17:52:00,34.5,26.4,29.42,WSW,238,0.0,0.0,72,0.00,,,0.00,0,WeatherCatV1.11B39,2013-02-15 22:52:00,
2013-02-15 17:57:00,34.4,27.0,29.42,WSW,238,0.0,0.0,74,0.00,,,0.00,0,WeatherCatV1.11B39,2013-02-15 22:57:00,
2013-02-15 18:02:00,34.0,26.9,29.42,WSW,238,0.0,0.0,75,0.00,,,0.00,0,WeatherCatV1.11B39,2013-02-15 23:02:00,
2013-02-15 18:07:00,33.6,26.9,29.42,WSW,238,0.0,0.0,76,0.00,,,0.00,0,WeatherCatV1.11B39,2013-02-15 23:07:00,
2013-02-15 18:12:00,33.3,26.9,29.42,WSW,238,0.0,0.0,77,0.00,,,0.00,0,WeatherCatV1.11B39,2013-02-15 23:12:00,
2013-02-15 18:17:00,32.9,26.5,29.42,WSW,238,0.0,0.0,77,0.00,,,0.00,0,WeatherCatV1.11B39,2013-02-15 23:17:00,
2013-02-15 18:22:00,32.6,26.2,29.43,WSW,238,0.0,0.0,77,0.00,,,0.00,0,WeatherCatV1.11B39,2013-02-15 23:22:00,
2013-02-15 18:27:00,32.3,26.2,29.43,WSW,238,0.0,0.0,78,0.00,,,0.00,0,WeatherCatV1.11B39,2013-02-15 23:27:00,
2013-02-15 18:32:00,31.9,26.1,29.42,WSW,238,0.0,1.0,79,0.00,,,0.00,0,WeatherCatV1.11B39,2013-02-15 23:32:00,
2013-02-15 18:37:00,31.6,25.8,29.42,WSW,238,0.0,0.0,79,0.00,,,0.00,0,WeatherCatV1.11B39,2013-02-15 23:37:00,
2013-02-15 18:42:00,31.3,25.6,29.43,WSW,238,0.0,0.0,79,0.00,,,0.00,0,WeatherCatV1.11B39,2013-02-15 23:42:00,
2013-02-15 18:47:00,31.0,25.3,29.43,WSW,238,0.0,0.0,79,0.00,,,0.00,0,WeatherCatV1.11B39,2013-02-15 23:47:00,
2013-02-15 18:52:00,30.7,25.3,29.43,WSW,238,0.0,0.0,80,0.00,,,0.00,0,WeatherCatV1.11B39,2013-02-15 23:52:00,
2013-02-15 18:57:00,30.3,24.3,29.43,WSW,238,0.0,0.0,78,0.00,,,0.00,0,WeatherCatV1.11B39,2013-02-15 23:57:00,
2013-02-15 19:02:00,29.9,24.5,29.43,NNW,329,1.0,1.0,80,0.00,,,0.00,0,WeatherCatV1.11B39,2013-02-16 00:02:00,
2013-02-15 19:07:00,29.6,24.5,29.43,North,0,0.0,0.0,81,0.00,,,0.00,0,WeatherCatV1.11B39,2013-02-16 00:07:00,
2013-02-15 19:12:00,29.2,24.1,29.43,North,0,0.0,0.0,81,0.00,,,0.00,0,WeatherCatV1.11B39,2013-02-16 00:12:00,
2013-02-15 19:18:00,29.0,24.2,29.43,North,0,0.0,0.0,82,0.00,,,0.00,0,WeatherCatV1.11B39,2013-02-16 00:18:00,
2013-02-15 19:23:00,28.8,24.6,29.44,North,0,0.0,1.0,84,0.00,,,0.00,0,WeatherCatV1.11B39,2013-02-16 00:23:00,
2013-02-15 19:28:00,28.5,24.9,29.43,North,0,0.0,0.0,86,0.00,,,0.00,0,WeatherCatV1.11B39,2013-02-16 00:28:00,
2013-02-15 19:33:00,28.4,24.5,29.43,North,0,0.0,0.0,85,0.00,,,0.00,0,WeatherCatV1.11B39,2013-02-16 00:33:00,
2013-02-15 19:38:00,28.2,24.6,29.44,North,0,0.0,1.0,86,0.00,,,0.00,0,WeatherCatV1.11B39,2013-02-16 00:38:00,
2013-02-15 19:43:00,28.1,24.5,29.43,North,0,0.0,0.0,86,0.00,,,0.00,0,WeatherCatV1.11B39,2013-02-16 00:43:00,
2013-02-15 19:48:00,28.0,24.4,29.44,West,269,0.0,1.0,86,0.00,,,0.00,0,WeatherCatV1.11B39,2013-02-16 00:48:00,
2013-02-15 19:53:00,28.0,24.6,29.43,South,190,0.0,0.0,87,0.00,,,0.00,0,WeatherCatV1.11B39,2013-02-16 00:53:00,
2013-02-15 19:58:00,27.9,24.0,29.44,NNW,340,0.0,0.0,85,0.00,,,0.00,0,WeatherCatV1.11B39,2013-02-16 00:58:00,
2013-02-15 20:03:00,27.8,23.9,29.43,NNW,340,0.0,1.0,85,0.00,,,0.00,0,WeatherCatV1.11B39,2013-02-16 01:03:00,
2013-02-15 20:08:00,27.6,23.4,29.44,NNW,340,0.0,0.0,84,0.00,,,0.00,0,WeatherCatV1.11B39,2013-02-16 01:08:00,
2013-02-15 20:13:00,27.5,23.6,29.44,NNW,340,0.0,1.0,85,0.00,,,0.00,0,WeatherCatV1.11B39,2013-02-16 01:13:00,
2013-02-15 20:18:00,27.3,23.4,29.44,NNW,340,0.0,1.0,85,0.00,,,0.00,0,WeatherCatV1.11B39,2013-02-16 01:18:00,
2013-02-15 20:23:00,27.1,23.2,29.44,North,350,0.0,1.0,85,0.00,,,0.00,0,WeatherCatV1.11B39,2013-02-16 01:23:00,
2013-02-15 20:28:00,26.9,23.0,29.44,North,350,0.0,0.0,85,0.00,,,0.00,0,WeatherCatV1.11B39,2013-02-16 01:28:00,
2013-02-15 20:33:00,26.7,23.1,29.44,North,350,0.0,0.0,86,0.00,,,0.00,0,WeatherCatV1.11B39,2013-02-16 01:33:00,
2013-02-15 20:38:00,26.6,23.3,29.44,North,350,0.0,1.0,87,0.00,,,0.00,0,WeatherCatV1.11B39,2013-02-16 01:38:00,
2013-02-15 20:43:00,26.4,23.1,29.44,North,350,0.0,0.0,87,0.00,,,0.00,0,WeatherCatV1.11B39,2013-02-16 01:43:00,
2013-02-15 20:48:00,26.2,23.1,29.44,North,350,0.0,1.0,88,0.00,,,0.00,0,WeatherCatV1.11B39,2013-02-16 01:48:00,
2013-02-15 20:53:00,26.1,22.8,29.45,North,350,0.0,0.0,87,0.00,,,0.00,0,WeatherCatV1.11B39,2013-02-16 01:53:00,
2013-02-15 20:58:00,25.9,22.6,29.45,North,350,0.0,0.0,87,0.00,,,0.00,0,WeatherCatV1.11B39,2013-02-16 01:58:00,
2013-02-15 21:03:00,25.8,22.7,29.45,North,350,0.0,0.0,88,0.00,,,0.00,0,WeatherCatV1.11B39,2013-02-16 02:03:00,
2013-02-15 21:05:00,25.8,22.7,29.45,North,350,0.0,0.0,88,0.00,,,0.00,0,WeatherCatV1.11B39,2013-02-16 02:05:00,
2013-02-15 21:10:00,25.7,22.6,29.45,North,350,0.0,0.0,88,0.00,,,0.00,0,WeatherCatV1.11B39,2013-02-16 02:10:00,
2013-02-15 21:11:00,25.6,22.5,29.45,North,350,0.0,0.0,88,0.00,,,0.00,0,WeatherCatV1.11B39,2013-02-16 02:11:00,
2013-02-15 21:16:00,25.6,22.8,29.45,North,350,0.0,0.0,89,0.00,,,0.00,0,WeatherCatV1.11B39,2013-02-16 02:16:00,
2013-02-15 21:20:00,25.5,22.2,29.44,North,350,0.0,0.0,87,0.00,,,0.00,0,WeatherCatV1.11B39,2013-02-16 02:20:00,
2013-02-15 21:25:00,25.3,22.0,29.45,North,349,0.0,0.0,87,0.00,,,0.00,0,WeatherCatV1.11B39,2013-02-16 02:25:00,
2013-02-15 21:31:00,25.1,22.1,29.44,North,349,0.0,0.0,88,0.00,,,0.00,0,WeatherCatV1.11B39,2013-02-16 02:31:00,
2013-02-15 21:36:00,25.0,22.0,29.45,North,349,0.0,0.0,88,0.00,,,0.00,0,WeatherCatV1.11B39,2013-02-16 02:36:00,
2013-02-15 21:38:00,24.8,21.8,29.44,North,349,0.0,0.0,88,0.00,,,0.00,0,WeatherCatV1.11B39,2013-02-16 02:38:00,
2013-02-15 21:39:00,24.9,21.9,29.44,North,349,0.0,0.0,88,0.00,,,0.00,0,WeatherCatV1.11B39,2013-02-16 02:39:00,
2013-02-15 21:44:00,24.8,22.0,29.44,North,349,0.0,0.0,89,0.00,,,0.00,0,WeatherCatV1.11B39,2013-02-16 02:44:00,
2013-02-15 21:49:00,24.7,21.7,29.44,North,349,0.0,0.0,88,0.00,,,0.00,0,WeatherCatV1.11B39,2013-02-16 02:49:00,
2013-02-15 21:54:00,24.5,21.5,29.44,North,349,0.0,0.0,88,0.00,,,0.00,0,WeatherCatV1.11B39,2013-02-16 02:54:00,
2013-02-15 21:59:00,24.3,21.0,29.45,North,349,0.0,0.0,87,0.00,,,0.00,0,WeatherCatV1.11B39,2013-02-16 02:59:00,
2013-02-15 22:04:00,24.2,20.9,29.45,North,349,0.0,0.0,87,0.00,,,0.00,0,WeatherCatV1.11B39,2013-02-16 03:04:00,
2013-02-15 22:06:00,24.1,21.1,29.45,North,349,0.0,0.0,88,0.00,,,0.00,0,WeatherCatV1.11B39,2013-02-16 03:06:00,
2013-02-15 22:07:00,24.1,21.1,29.45,North,349,0.0,0.0,88,0.00,,,0.00,0,WeatherCatV1.11B39,2013-02-16 03:07:00,
2013-02-15 22:12:00,24.0,21.2,29.45,North,349,0.0,0.0,89,0.00,,,0.00,0,WeatherCatV1.11B39,2013-02-16 03:12:00,
2013-02-15 22:17:00,23.9,21.1,29.45,North,349,0.0,0.0,89,0.00,,,0.00,0,WeatherCatV1.11B39,2013-02-16 03:17:00,
2013-02-15 22:22:00,23.9,21.4,29.45,North,349,0.0,0.0,90,0.00,,,0.00,0,WeatherCatV1.11B39,2013-02-16 03:22:00,
2013-02-15 22:27:00,23.9,21.4,29.45,North,349,0.0,0.0,90,0.00,,,0.00,0,WeatherCatV1.11B39,2013-02-16 03:27:00,
2013-02-15 22:32:00,23.8,21.0,29.44,North,350,0.0,0.0,89,0.00,,,0.00,0,WeatherCatV1.11B39,2013-02-16 03:32:00,
2013-02-15 22:37:00,23.8,21.3,29.45,NNW,340,0.0,0.0,90,0.00,,,0.00,0,WeatherCatV1.11B39,2013-02-16 03:37:00,
2013-02-15 22:42:00,23.9,21.7,29.44,NNW,340,0.0,1.0,91,0.00,,,0.00,0,WeatherCatV1.11B39,2013-02-16 03:42:00,
2013-02-15 22:47:00,24.0,21.8,29.44,NNW,340,0.0,0.0,91,0.00,,,0.00,0,WeatherCatV1.11B39,2013-02-16 03:47:00,
2013-02-15 22:52:00,23.9,21.4,29.44,NNW,340,0.0,1.0,90,0.00,,,0.00,0,WeatherCatV1.11B39,2013-02-16 03:52:00,
2013-02-15 22:57:00,23.8,21.0,29.45,NNW,340,0.0,0.0,89,0.00,,,0.00,0,WeatherCatV1.11B39,2013-02-16 03:57:00,
2013-02-15 23:02:00,23.8,21.0,29.44,NNW,340,0.0,0.0,89,0.00,,,0.00,0,WeatherCatV1.11B39,2013-02-16 04:02:00,
2013-02-15 23:07:00,23.6,20.8,29.45,NNW,342,0.0,0.0,89,0.00,,,0.00,0,WeatherCatV1.11B39,2013-02-16 04:07:00,
2013-02-15 23:12:00,23.6,21.1,29.44,NNW,342,0.0,0.0,90,0.00,,,0.00,0,WeatherCatV1.11B39,2013-02-16 04:12:00,
2013-02-15 23:17:00,23.5,20.7,29.44,NNW,342,0.0,0.0,89,0.00,,,0.00,0,WeatherCatV1.11B39,2013-02-16 04:17:00,
2013-02-15 23:22:00,23.5,21.0,29.44,NNW,342,0.0,0.0,90,0.00,,,0.00,0,WeatherCatV1.11B39,2013-02-16 04:22:00,
2013-02-15 23:27:00,23.5,21.0,29.45,NNW,342,0.0,0.0,90,0.00,,,0.00,0,WeatherCatV1.11B39,2013-02-16 04:27:00,
2013-02-15 23:32:00,23.6,21.4,29.45,NNW,342,0.0,1.0,91,0.00,,,0.00,0,WeatherCatV1.11B39,2013-02-16 04:32:00,
2013-02-15 23:37:00,23.6,21.4,29.45,NNW,342,0.0,0.0,91,0.00,,,0.00,0,WeatherCatV1.11B39,2013-02-16 04:37:00,
2013-02-15 23:42:00,23.7,21.5,29.45,NNW,342,0.0,0.0,91,0.00,,,0.00,0,WeatherCatV1.11B39,2013-02-16 04:42:00,
2013-02-15 23:47:00,23.8,21.6,29.46,NW,325,0.0,0.0,91,0.00,,,0.00,0,WeatherCatV1.11B39,2013-02-16 04:47:00,
2013-02-15 23:52:00,23.9,21.7,29.45,NW,325,0.0,0.0,91,0.00,,,0.00,0,WeatherCatV1.11B39,2013-02-16 04:52:00,
2013-02-15 23:57:00,24.0,22.0,29.45,NW,325,0.0,0.0,92,0.00,,,0.00,0,WeatherCatV1.11B39,2013-02-16 04:57:00,